Change the Weather History Date:

Sunday, November 18, 2012

  Actual Average Record
Temperature  
Mean Temperature 42 °F -  
Max Temperature 53 °F 32 °F 53 °F (2012)
Min Temperature 30 °F 19 °F -1 °F (1986)
Degree Days  
Heating Degree Days 24    
Moisture  
Dew Point 31 °F    
Average Humidity 62    
Maximum Humidity 82    
Minimum Humidity 41    
Precipitation  
Precipitation 0.00 in - - ()
Sea Level Pressure  
Sea Level Pressure 30.11 in    
Wind  
Wind Speed 7 mph (SE)    
Max Wind Speed 13 mph    
Max Gust Speed 18 mph    
Visibility 10 miles    
Events      
Averages and records for this station are not official NWS values.
T = Trace of Precipitation, MM = Missing Value Source: NWS Daily Summary

Daily Weather History Graph

Daily Weather History Graph

Search for Another Location

Airport or City:

Trip Planner

Search our weather history database for the weather conditions in past years. The results will help you decide how hot, cold, wet, or windy it might be!

Date:

Astronomy

Nov. 18, 2012 Rise Set
Actual Time 7:20 AM CST 4:31 PM CST
Civil Twilight 6:47 AM CST 5:05 PM CST
Nautical Twilight 6:09 AM CST 5:43 PM CST
Astronomical Twilight 5:33 AM CST 6:19 PM CST
Moon 11:43 AM CST (11/18) 9:58 PM CST (11/18)
Length of Visible Light 10h 18m
Length of Day
9h 10m
Waxing Crescent, 30% of the Moon is Illuminated
Nov 18
Waxing Crescent
Nov 20
First Quarter
Nov 28
Full
Dec 6
Last Quarter
Dec 13
New

Hourly Weather History & Observations

Time (CST) Temp. Windchill Dew Point Humidity Pressure Visibility Wind Dir Wind Speed Gust Speed Precip Events Conditions
12:53 AM 46.0 °F 43.1 °F 35.1 °F 66% 30.18 in 10.0 mi SSE 5.8 mph - N/A   Mostly Cloudy
1:53 AM 45.0 °F 41.2 °F 35.1 °F 68% 30.17 in 10.0 mi SE 6.9 mph - N/A   Overcast
2:53 AM 42.1 °F 38.4 °F 34.0 °F 73% 30.17 in 10.0 mi SE 5.8 mph - N/A   Partly Cloudy
3:53 AM 44.1 °F 39.5 °F 34.0 °F 68% 30.16 in 10.0 mi SE 8.1 mph - N/A   Overcast
4:53 AM 44.1 °F 39.5 °F 34.0 °F 68% 30.15 in 10.0 mi SE 8.1 mph - N/A   Overcast
5:53 AM 44.1 °F 40.8 °F 33.1 °F 65% 30.15 in 10.0 mi SE 5.8 mph - N/A   Overcast
6:53 AM 43.0 °F 38.2 °F 33.1 °F 68% 30.14 in 10.0 mi SE 8.1 mph - N/A   Overcast
7:53 AM 43.0 °F 39.5 °F 32.0 °F 65% 30.14 in 10.0 mi SE 5.8 mph - N/A   Overcast
8:53 AM 45.0 °F 40.6 °F 30.9 °F 58% 30.14 in 10.0 mi SSE 8.1 mph - N/A   Overcast
9:53 AM 46.9 °F - 30.9 °F 54% 30.12 in 10.0 mi SE 11.5 mph - N/A   Mostly Cloudy
10:53 AM 48.9 °F - 30.0 °F 48% 30.11 in 10.0 mi SSE 12.7 mph 18.4 mph N/A   Clear
11:53 AM 50.0 °F - 30.0 °F 46% 30.09 in 10.0 mi SSE 8.1 mph 16.1 mph N/A   Clear
12:53 PM 52.0 °F - 30.0 °F 43% 30.07 in 10.0 mi SSE 6.9 mph 17.3 mph N/A   Clear
1:53 PM 53.1 °F - 30.0 °F 41% 30.06 in 10.0 mi SSE 10.4 mph 18.4 mph N/A   Clear
2:53 PM 53.1 °F - 30.0 °F 41% 30.05 in 10.0 mi SSE 9.2 mph - N/A   Clear
3:53 PM 52.0 °F - 30.0 °F 43% 30.06 in 10.0 mi SSE 4.6 mph - N/A   Clear
4:53 PM 48.0 °F - 30.0 °F 50% 30.08 in 10.0 mi South 4.6 mph - N/A   Clear
5:53 PM 37.9 °F 35.5 °F 28.9 °F 70% 30.09 in 10.0 mi SSE 3.5 mph - N/A   Clear
6:53 PM 35.1 °F 31.0 °F 28.0 °F 76% 30.11 in 10.0 mi SE 4.6 mph - N/A   Clear
7:53 PM 30.9 °F 26.2 °F 26.1 °F 82% 30.10 in 10.0 mi SE 4.6 mph - N/A   Clear
8:53 PM 30.9 °F 25.2 °F 26.1 °F 82% 30.09 in 10.0 mi SE 5.8 mph - N/A   Clear
9:53 PM 33.1 °F 30.0 °F 27.0 °F 78% 30.09 in 10.0 mi SE 3.5 mph - N/A   Clear
11:53 PM 33.1 °F 27.7 °F 28.0 °F 82% 30.07 in 10.0 mi SE 5.8 mph - N/A   Clear